{"data":{"norad_id":58493,"epoch":"2026-05-24T23:04:32.949408Z","epoch_age_seconds":82379,"freshness":"FRESH","line1":"1 58493U 23186W   26144.96149247 -.00006347  00000+0 -22111-3 0  9999","line2":"2 58493  43.0044 352.6750 0001599 239.7999 120.2694 15.27610221137558","mean_motion":15.27610221,"eccentricity":0.0001599,"inclination_deg":43.0044,"raan_deg":352.675,"arg_perigee_deg":239.7999,"mean_anomaly_deg":120.2694,"bstar":-0.00022111,"rev_number":13755,"period_min":94.264883816852,"perigee_km":481.86151579833,"apogee_km":484.0556941728,"semimajor_km":6861.0956049856,"source":"CELESTRAK","updated_at":"2026-05-25T13:38:18.654262Z"}}